Location: Caltech
(34.1382°N, 118.1253°W)
Time: 07:50:26
(UTC-07:00)

Courier 1B - Visible Passes

Search period start: 02 September 2015 00:00
Search period end: 12 September 2015 00:00
Orbit: 963 x 1209 km, 28.3° (Epoch: 02 September)

Date Brightness Start Highest point End Pass type
(mag) Time Alt. Az. Time Alt. Az. Time Alt. Az.
02 Sep 9.7 02:57:34 15° ESE 02:57:34 15° ESE 02:59:07 10° ESE visible
02 Sep 8.2 04:44:27 32° SW 04:47:10 47° SSE 04:54:11 10° E visible
03 Sep 8.3 03:54:04 40° SSE 03:54:04 40° SSE 04:00:08 10° E visible
03 Sep 8.1 05:40:58 12° WSW 05:47:16 55° S 05:54:34 10° ESE visible
04 Sep 9.5 03:03:42 20° ESE 03:03:42 20° ESE 03:06:04 10° E visible
04 Sep 8.0 04:50:36 33° SW 04:53:31 53° S 05:00:36 10° E visible
05 Sep 8.0 04:00:14 49° SSE 04:00:14 49° SSE 04:06:39 10° E visible
05 Sep 8.1 05:47:08 11° W 05:53:39 52° S 06:00:49 10° ESE visible
06 Sep 9.3 03:09:54 24° ESE 03:09:54 24° ESE 03:12:41 10° E visible
06 Sep 7.9 04:56:48 31° WSW 04:59:54 54° S 05:06:56 10° ESE visible
07 Sep 7.8 04:06:30 53° SSE 04:06:30 53° SSE 04:13:03 10° ESE visible
07 Sep 8.3 05:53:29 10° W 06:00:00 44° SSW 06:06:53 10° ESE visible
08 Sep 9.2 03:16:14 26° ESE 03:16:14 26° ESE 03:19:10 10° E visible
08 Sep 8.0 05:03:08 29° WSW 05:06:17 48° S 05:13:08 10° ESE visible
09 Sep 7.8 04:12:55 51° S 04:12:55 51° S 04:19:21 10° ESE visible
09 Sep 8.6 06:00:14 10° W 06:06:18 33° SSW 06:12:39 10° SE visible
10 Sep 9.2 03:22:45 25° ESE 03:22:45 25° ESE 03:25:32 10° ESE visible
10 Sep 8.2 05:09:40 26° WSW 05:12:37 38° SSW 05:19:06 10° SE visible
11 Sep 8.1 04:19:34 42° S 04:19:34 42° S 04:25:28 10° ESE visible
11 Sep 9.0 06:07:23 10° WSW 06:12:34 23° SSW 06:17:51 10° SSE visible
